Change the Weather History Date:

Monday, March 25, 2013

  Actual Average (KFHU) Record (KFHU)
Temperature  
Mean Temperature 57 °F -  
Max Temperature 71 °F 70 °F 87 °F (1988)
Min Temperature 43 °F 47 °F 31 °F (1983)
Degree Days  
Heating Degree Days 8    
Growing Degree Days 7 (Base 50)    
Moisture  
Dew Point 8 °F    
Average Humidity 14    
Maximum Humidity 22    
Minimum Humidity 9    
Precipitation  
Precipitation 0.00 in - - ()
Sea Level Pressure  
Sea Level Pressure 29.87 in    
Wind  
Wind Speed 6 mph (SW)    
Max Wind Speed 10 mph    
Max Gust Speed -    
Averages and records for this station are not official NWS values.
T = Trace of Precipitation, MM = Missing Value Source: NWS Daily Summary

Daily Weather History Graph

Daily Weather History Graph

Search for Another Location

Airport or City:

Trip Planner

Search our weather history database for the weather conditions in past years. The results will help you decide how hot, cold, wet, or windy it might be!

Date:

Astronomy

Mar. 25, 2013 Rise Set
Actual Time 6:18 AM MST 6:36 PM MST
Civil Twilight 5:54 AM MST 7:01 PM MST
Nautical Twilight 5:25 AM MST 7:29 PM MST
Astronomical Twilight 4:57 AM MST 7:58 PM MST
Moon 5:15 PM MST (3/25) 4:59 AM MST (3/25)
Length of Visible Light 13h 06m
Length of Day
12h 18m
Waxing Gibbous, 97% of the Moon is Illuminated
Mar 25
Waxing Gibbous
Mar 27
Full
Apr 2
Last Quarter
Apr 10
New
Apr 18
First Quarter

Hourly Weather History & Observations

Time (MST) Temp. Windchill Dew Point Humidity Pressure Visibility Wind Dir Wind Speed Gust Speed Precip Events Conditions
12:56 AM 48.9 °F - 1.9 °F 15% 29.85 in - SSE 3.5 mph - N/A   Clear
1:56 AM 46.0 °F 43.1 °F 3.0 °F 17% 29.84 in - SSW 5.8 mph - N/A   Clear
2:56 AM 48.0 °F - 3.9 °F 16% 29.83 in - WSW 4.6 mph - N/A   Clear
3:56 AM 48.0 °F - 3.9 °F 16% 29.84 in - South 3.5 mph - N/A   Clear
4:56 AM 50.0 °F - 3.9 °F 15% 29.84 in - Calm Calm - N/A   Clear
5:56 AM 43.0 °F - 6.1 °F 22% 29.88 in - Calm Calm - N/A   Clear
6:56 AM 48.9 °F - 7.0 °F 18% 29.90 in - SE 5.8 mph - N/A   Clear
7:56 AM 55.9 °F - 9.0 °F 15% 29.91 in - East 6.9 mph - N/A   Clear
8:56 AM 60.1 °F - 6.1 °F 12% 29.92 in - ENE 9.2 mph - N/A   Clear
9:56 AM 62.1 °F - 7.0 °F 11% 29.93 in - ENE 8.1 mph - N/A   Unknown
10:56 AM 64.0 °F - 8.1 °F 11% 29.92 in - ENE 10.4 mph - N/A   Clear
11:56 AM 66.0 °F - 8.1 °F 10% 29.90 in - NNW 8.1 mph - N/A   Clear
12:56 PM 68.0 °F - 8.1 °F 10% 29.87 in - East 10.4 mph - N/A   Unknown
1:56 PM 69.1 °F - 7.0 °F 9% 29.85 in - NNW 8.1 mph - N/A   Clear
2:56 PM 71.1 °F - 8.1 °F 9% 29.83 in - Variable 4.6 mph - N/A   Clear
3:56 PM 69.1 °F - 8.1 °F 9% 29.82 in - Calm Calm - N/A   Clear
4:56 PM 70.0 °F - 9.0 °F 9% 29.81 in - West 9.2 mph - N/A   Clear
5:56 PM 66.9 °F - 9.0 °F 10% 29.85 in - NW 9.2 mph - N/A   Clear
6:56 PM 61.0 °F - 10.9 °F 14% 29.87 in - WNW 8.1 mph - N/A   Clear
7:56 PM 55.9 °F - 12.0 °F 18% 29.89 in - WSW 8.1 mph - N/A   Clear
8:56 PM 55.9 °F - 12.0 °F 18% 29.89 in - SW 9.2 mph - N/A   Clear
9:56 PM 54.0 °F - 12.0 °F 19% 29.91 in - SW 9.2 mph - N/A   Clear
10:56 PM 55.0 °F - 12.0 °F 18% 29.91 in - SW 5.8 mph - N/A   Clear
11:56 PM 55.0 °F - 12.0 °F 18% 29.90 in - SSW 5.8 mph - N/A   Clear